Time,TemperatureF,DewpointF,PressureIn,WindDirection,WindDirectionDegrees,WindSpeedMPH,WindSpeedGustMPH,Humidity,HourlyPrecipIn,Conditions,Clouds,dailyrainin,SolarRadiationWatts/m^2,SoftwareType,DateUTC
2013-04-09 00:03:00,61.0,42.0,-100.00,SE,129,0.0,0.0,49,0.00,,,0.00,0.000000,,2013-04-09 04:03:00,
2013-04-09 00:13:00,61.0,42.0,-100.00,SE,129,0.0,0.0,49,0.00,,,0.00,0.000000,,2013-04-09 04:13:00,
2013-04-09 00:43:00,60.0,43.0,-100.00,South,169,0.0,1.0,53,0.00,,,0.00,0.000000,,2013-04-09 04:43:00,
2013-04-09 00:53:00,60.0,43.0,-100.00,South,169,0.0,1.0,53,0.00,,,0.00,0.000000,,2013-04-09 04:53:00,
2013-04-09 01:02:00,60.0,43.0,-100.00,South,169,0.0,1.0,53,0.00,,,0.00,0.000000,,2013-04-09 05:02:00,
2013-04-09 01:12:00,60.0,43.0,-100.00,South,169,0.0,1.0,53,0.00,,,0.00,0.000000,,2013-04-09 05:12:00,
2013-04-09 01:32:00,59.0,43.0,-100.00,SSW,213,1.0,1.0,55,0.00,,,0.00,0.000000,,2013-04-09 05:32:00,
2013-04-09 01:43:00,59.0,43.0,-100.00,SSW,213,1.0,1.0,55,0.00,,,0.00,0.000000,,2013-04-09 05:43:00,
2013-04-09 01:52:00,59.0,43.0,-100.00,SSW,213,1.0,1.0,55,0.00,,,0.00,0.000000,,2013-04-09 05:52:00,
2013-04-09 02:02:00,59.0,43.0,-100.00,SSW,213,1.0,1.0,55,0.00,,,0.00,0.000000,,2013-04-09 06:02:00,
2013-04-09 02:12:00,59.0,43.0,-100.00,SSW,213,1.0,1.0,55,0.00,,,0.00,0.000000,,2013-04-09 06:12:00,
2013-04-09 02:32:00,58.0,43.0,-100.00,West,276,2.0,5.0,57,0.00,,,0.00,0.000000,,2013-04-09 06:32:00,
2013-04-09 02:42:00,58.0,43.0,-100.00,West,276,2.0,5.0,57,0.00,,,0.00,0.000000,,2013-04-09 06:42:00,
2013-04-09 02:52:00,58.0,43.0,-100.00,West,276,2.0,5.0,57,0.00,,,0.00,0.000000,,2013-04-09 06:52:00,
2013-04-09 03:02:00,58.0,43.0,-100.00,West,276,2.0,5.0,57,0.00,,,0.00,0.000000,,2013-04-09 07:02:00,
2013-04-09 03:13:00,58.0,43.0,-100.00,West,276,2.0,5.0,57,0.00,,,0.00,0.000000,,2013-04-09 07:13:00,
2013-04-09 03:42:00,58.0,44.0,-100.00,West,266,2.0,4.0,60,0.00,,,0.00,0.000000,,2013-04-09 07:42:00,
2013-04-09 03:53:00,58.0,44.0,-100.00,West,266,2.0,4.0,60,0.00,,,0.00,0.000000,,2013-04-09 07:53:00,
2013-04-09 04:03:00,58.0,44.0,-100.00,West,266,2.0,4.0,60,0.00,,,0.00,0.000000,,2013-04-09 08:03:00,
2013-04-09 04:13:00,58.0,44.0,-100.00,West,266,2.0,4.0,60,0.00,,,0.00,0.000000,,2013-04-09 08:13:00,
2013-04-09 04:42:00,57.0,44.0,-100.00,West,275,1.0,2.0,62,0.00,,,0.00,0.000000,,2013-04-09 08:42:00,
2013-04-09 04:52:00,57.0,44.0,-100.00,West,275,1.0,2.0,62,0.00,,,0.00,0.000000,,2013-04-09 08:52:00,
2013-04-09 05:02:00,57.0,44.0,-100.00,West,275,1.0,2.0,62,0.00,,,0.00,0.000000,,2013-04-09 09:02:00,
2013-04-09 05:12:00,57.0,44.0,-100.00,West,275,1.0,2.0,62,0.00,,,0.00,0.000000,,2013-04-09 09:12:00,
2013-04-09 05:44:00,56.0,44.0,-100.00,NW,325,1.0,3.0,65,0.00,,,0.00,0.000000,,2013-04-09 09:44:00,
2013-04-09 05:53:00,56.0,44.0,-100.00,NW,325,1.0,3.0,65,0.00,,,0.00,0.000000,,2013-04-09 09:53:00,
2013-04-09 06:04:00,56.0,44.0,-100.00,NW,325,1.0,3.0,65,0.00,,,0.00,0.000000,,2013-04-09 10:04:00,
2013-04-09 06:13:00,56.0,44.0,-100.00,NW,325,1.0,3.0,65,0.00,,,0.00,0.000000,,2013-04-09 10:13:00,
2013-04-09 06:43:00,56.0,45.0,-100.00,SSE,162,1.0,1.0,66,0.00,,,0.00,0.000000,,2013-04-09 10:43:00,
2013-04-09 06:54:00,56.0,45.0,-100.00,SSE,162,1.0,1.0,66,0.00,,,0.00,0.000000,,2013-04-09 10:54:00,
2013-04-09 07:02:00,56.0,45.0,-100.00,SSE,162,1.0,1.0,66,0.00,,,0.00,0.000000,,2013-04-09 11:02:00,
2013-04-09 07:12:00,56.0,45.0,-100.00,SSE,162,1.0,1.0,66,0.00,,,0.00,0.000000,,2013-04-09 11:12:00,
2013-04-09 07:32:00,56.0,44.0,-100.00,NNW,328,1.0,2.0,64,0.00,,,0.00,2.000000,,2013-04-09 11:32:00,
2013-04-09 07:43:00,56.0,44.0,-100.00,NNW,328,1.0,2.0,64,0.00,,,0.00,2.000000,,2013-04-09 11:43:00,
2013-04-09 07:52:00,56.0,44.0,-100.00,NNW,328,1.0,2.0,64,0.00,,,0.00,2.000000,,2013-04-09 11:52:00,
2013-04-09 08:02:00,56.0,44.0,-100.00,NNW,328,1.0,2.0,64,0.00,,,0.00,2.000000,,2013-04-09 12:02:00,
2013-04-09 08:12:00,56.0,44.0,-100.00,NNW,328,1.0,2.0,64,0.00,,,0.00,2.000000,,2013-04-09 12:12:00,
2013-04-09 08:43:00,58.0,46.0,-100.00,NNW,337,0.0,4.0,64,0.00,,,0.00,48.000000,,2013-04-09 12:43:00,
2013-04-09 08:53:00,58.0,46.0,-100.00,NNW,337,0.0,4.0,64,0.00,,,0.00,48.000000,,2013-04-09 12:53:00,
2013-04-09 09:03:00,58.0,46.0,-100.00,NNW,337,0.0,4.0,64,0.00,,,0.00,48.000000,,2013-04-09 13:03:00,
2013-04-09 09:13:00,58.0,46.0,-100.00,NNW,337,0.0,4.0,64,0.00,,,0.00,48.000000,,2013-04-09 13:13:00,
2013-04-09 09:43:00,65.0,49.0,-100.00,South,189,1.0,4.0,57,0.00,,,0.00,229.000000,,2013-04-09 13:43:00,
2013-04-09 09:53:00,65.0,49.0,-100.00,South,189,1.0,4.0,57,0.00,,,0.00,229.000000,,2013-04-09 13:53:00,
2013-04-09 10:03:00,65.0,49.0,-100.00,South,189,1.0,4.0,57,0.00,,,0.00,229.000000,,2013-04-09 14:03:00,
2013-04-09 10:12:00,65.0,49.0,-100.00,South,189,1.0,4.0,57,0.00,,,0.00,229.000000,,2013-04-09 14:12:00,
2013-04-09 10:43:00,67.0,48.0,-100.00,West,270,0.0,4.0,50,0.00,,,0.00,415.000000,,2013-04-09 14:43:00,
2013-04-09 10:53:00,67.0,48.0,-100.00,West,270,0.0,4.0,50,0.00,,,0.00,415.000000,,2013-04-09 14:53:00,
2013-04-09 11:02:00,67.0,48.0,-100.00,West,270,0.0,4.0,50,0.00,,,0.00,415.000000,,2013-04-09 15:02:00,
2013-04-09 11:13:00,67.0,48.0,-100.00,West,270,0.0,4.0,50,0.00,,,0.00,415.000000,,2013-04-09 15:13:00,
2013-04-09 11:44:00,70.0,48.0,-100.00,WNW,290,0.0,0.0,45,0.00,,,0.00,504.000000,,2013-04-09 15:44:00,
2013-04-09 11:54:00,70.0,48.0,-100.00,WNW,290,0.0,0.0,45,0.00,,,0.00,504.000000,,2013-04-09 15:54:00,
2013-04-09 12:03:00,70.0,48.0,-100.00,WNW,290,0.0,0.0,45,0.00,,,0.00,504.000000,,2013-04-09 16:03:00,
2013-04-09 12:13:00,70.0,48.0,-100.00,WNW,290,0.0,0.0,45,0.00,,,0.00,504.000000,,2013-04-09 16:13:00,
2013-04-09 12:43:00,72.0,48.0,-100.00,WNW,297,0.0,1.0,42,0.00,,,-99.99,510.000000,,2013-04-09 16:43:00,
2013-04-09 12:54:00,72.0,48.0,-100.00,WNW,297,0.0,1.0,42,0.00,,,-99.99,510.000000,,2013-04-09 16:54:00,
2013-04-09 13:03:00,72.0,48.0,-100.00,WNW,297,0.0,1.0,42,0.00,,,-99.99,510.000000,,2013-04-09 17:03:00,
2013-04-09 13:13:00,72.0,48.0,-100.00,WNW,297,0.0,1.0,42,0.00,,,-99.99,510.000000,,2013-04-09 17:13:00,
2013-04-09 13:43:00,76.0,49.0,-100.00,SW,236,0.0,0.0,39,0.00,,,0.00,694.000000,,2013-04-09 17:43:00,
2013-04-09 13:54:00,76.0,49.0,-100.00,SW,236,0.0,0.0,39,0.00,,,0.00,694.000000,,2013-04-09 17:54:00,
2013-04-09 14:03:00,76.0,49.0,-100.00,SW,236,0.0,0.0,39,0.00,,,0.00,694.000000,,2013-04-09 18:03:00,
2013-04-09 14:13:00,76.0,49.0,-100.00,SW,236,0.0,0.0,39,0.00,,,0.00,694.000000,,2013-04-09 18:13:00,
2013-04-09 14:43:00,78.0,49.0,-100.00,SSE,158,0.0,1.0,36,0.00,,,0.00,724.000000,,2013-04-09 18:43:00,
2013-04-09 14:53:00,78.0,49.0,-100.00,SSE,158,0.0,1.0,36,0.00,,,0.00,724.000000,,2013-04-09 18:53:00,
2013-04-09 15:03:00,78.0,49.0,-100.00,SSE,158,0.0,1.0,36,0.00,,,0.00,724.000000,,2013-04-09 19:03:00,
2013-04-09 15:12:00,78.0,49.0,-100.00,SSE,158,0.0,1.0,36,0.00,,,0.00,724.000000,,2013-04-09 19:12:00,
2013-04-09 15:53:00,79.0,47.0,-100.00,SSW,194,1.0,1.0,32,0.00,,,0.00,557.000000,,2013-04-09 19:53:00,
2013-04-09 16:03:00,79.0,47.0,-100.00,SSW,194,1.0,1.0,32,0.00,,,0.00,557.000000,,2013-04-09 20:03:00,
2013-04-09 16:12:00,79.0,47.0,-100.00,SSW,194,1.0,1.0,32,0.00,,,0.00,557.000000,,2013-04-09 20:12:00,
2013-04-09 16:44:00,79.0,43.0,-100.00,South,188,0.0,0.0,28,0.00,,,0.00,533.000000,,2013-04-09 20:44:00,
2013-04-09 16:53:00,79.0,43.0,-100.00,South,188,0.0,0.0,28,0.00,,,0.00,533.000000,,2013-04-09 20:53:00,
2013-04-09 17:03:00,79.0,43.0,-100.00,South,188,0.0,0.0,28,0.00,,,0.00,533.000000,,2013-04-09 21:03:00,
2013-04-09 17:14:00,79.0,43.0,-100.00,South,188,0.0,0.0,28,0.00,,,0.00,533.000000,,2013-04-09 21:14:00,
2013-04-09 17:53:00,81.0,46.0,-100.00,South,191,0.0,1.0,29,0.00,,,0.00,407.000000,,2013-04-09 21:53:00,
2013-04-09 18:03:00,81.0,46.0,-100.00,South,191,0.0,1.0,29,0.00,,,0.00,407.000000,,2013-04-09 22:03:00,
2013-04-09 18:13:00,81.0,46.0,-100.00,South,191,0.0,1.0,29,0.00,,,0.00,407.000000,,2013-04-09 22:13:00,
2013-04-09 18:34:00,76.0,41.0,-100.00,SSW,206,0.0,1.0,28,0.00,,,0.00,265.000000,,2013-04-09 22:34:00,
2013-04-09 18:43:00,76.0,41.0,-100.00,SSW,206,0.0,1.0,28,0.00,,,0.00,265.000000,,2013-04-09 22:43:00,
2013-04-09 18:54:00,76.0,41.0,-100.00,SSW,206,0.0,1.0,28,0.00,,,0.00,265.000000,,2013-04-09 22:54:00,
2013-04-09 19:03:00,76.0,41.0,-100.00,SSW,206,0.0,1.0,28,0.00,,,0.00,265.000000,,2013-04-09 23:03:00,
2013-04-09 19:13:00,76.0,41.0,-100.00,SSW,206,0.0,1.0,28,0.00,,,0.00,265.000000,,2013-04-09 23:13:00,
2013-04-09 19:43:00,75.0,41.0,-100.00,SW,217,0.0,0.0,29,0.00,,,0.00,82.000000,,2013-04-09 23:43:00,
2013-04-09 19:53:00,75.0,41.0,-100.00,SW,217,0.0,0.0,29,0.00,,,0.00,82.000000,,2013-04-09 23:53:00,
2013-04-09 20:03:00,75.0,41.0,-100.00,SW,217,0.0,0.0,29,0.00,,,0.00,82.000000,,2013-04-10 00:03:00,
2013-04-09 20:13:00,75.0,41.0,-100.00,SW,217,0.0,0.0,29,0.00,,,0.00,82.000000,,2013-04-10 00:13:00,
2013-04-09 20:43:00,71.0,38.0,-100.00,SW,214,0.0,0.0,30,0.00,,,0.00,8.000000,,2013-04-10 00:43:00,
2013-04-09 20:53:00,71.0,38.0,-100.00,SW,214,0.0,0.0,30,0.00,,,0.00,8.000000,,2013-04-10 00:53:00,
2013-04-09 21:02:00,71.0,38.0,-100.00,SW,214,0.0,0.0,30,0.00,,,0.00,8.000000,,2013-04-10 01:02:00,
2013-04-09 21:12:00,71.0,38.0,-100.00,SW,214,0.0,0.0,30,0.00,,,0.00,8.000000,,2013-04-10 01:12:00,
2013-04-09 21:33:00,68.0,36.0,-100.00,ENE,65,0.0,0.0,31,0.00,,,0.00,0.000000,,2013-04-10 01:33:00,
2013-04-09 21:43:00,68.0,36.0,-100.00,ENE,65,0.0,0.0,31,0.00,,,0.00,0.000000,,2013-04-10 01:43:00,
2013-04-09 21:53:00,68.0,36.0,-100.00,ENE,65,0.0,0.0,31,0.00,,,0.00,0.000000,,2013-04-10 01:53:00,
2013-04-09 22:03:00,68.0,36.0,-100.00,ENE,65,0.0,0.0,31,0.00,,,0.00,0.000000,,2013-04-10 02:03:00,
2013-04-09 22:13:00,68.0,36.0,-100.00,ENE,65,0.0,0.0,31,0.00,,,0.00,0.000000,,2013-04-10 02:13:00,
2013-04-09 22:33:00,68.0,38.0,-100.00,South,183,0.0,0.0,33,0.00,,,0.00,0.000000,,2013-04-10 02:33:00,
2013-04-09 22:43:00,68.0,38.0,-100.00,South,183,0.0,0.0,33,0.00,,,0.00,0.000000,,2013-04-10 02:43:00,
2013-04-09 22:53:00,68.0,38.0,-100.00,South,183,0.0,0.0,33,0.00,,,0.00,0.000000,,2013-04-10 02:53:00,
2013-04-09 23:03:00,68.0,38.0,-100.00,South,183,0.0,0.0,33,0.00,,,0.00,0.000000,,2013-04-10 03:03:00,
2013-04-09 23:12:00,68.0,38.0,-100.00,South,183,0.0,0.0,33,0.00,,,0.00,0.000000,,2013-04-10 03:12:00,
2013-04-09 23:43:00,65.0,37.0,-100.00,NNW,338,0.0,0.0,35,0.00,,,0.00,0.000000,,2013-04-10 03:43:00,
2013-04-09 23:53:00,65.0,37.0,-100.00,NNW,338,0.0,0.0,35,0.00,,,0.00,0.000000,,2013-04-10 03:53:00,